Lake Eufaula Weather Center

Moon Phase Calendar



Lake Eufaula Water Level
Online Cameras

 


      

Current Conditions in Eufaula
1/21/2021 11:54:58 PM

42°F
Feels Like 39
Mist
Humidity
100%
Pressure
29.97"
Wind
3.4 mph (NNE)
Dew Point
42°F
UV Index
0/10 (Low)
Visibility
2 mi

Hourly Forecast

Date & Time Thu, Jan 21
11:00 PM
Fri, Jan 22
12:00 AM
Fri, Jan 22
1:00 AM
Fri, Jan 22
2:00 AM
Fri, Jan 22
3:00 AM
Fri, Jan 22
4:00 AM
Fri, Jan 22
5:00 AM
Fri, Jan 22
6:00 AM
Fri, Jan 22
7:00 AM
Fri, Jan 22
8:00 AM
Fri, Jan 22
9:00 AM
Fri, Jan 22
10:00 AM
Fri, Jan 22
11:00 AM
Fri, Jan 22
12:00 PM
Fri, Jan 22
1:00 PM
Fri, Jan 22
2:00 PM
Fri, Jan 22
3:00 PM
Fri, Jan 22
4:00 PM
Fri, Jan 22
5:00 PM
Fri, Jan 22
6:00 PM
Fri, Jan 22
7:00 PM
Fri, Jan 22
8:00 PM
Fri, Jan 22
9:00 PM
Fri, Jan 22
10:00 PM
Fri, Jan 22
11:00 PM
Sat, Jan 23
12:00 AM
Sat, Jan 23
1:00 AM
Sat, Jan 23
2:00 AM
Sat, Jan 23
3:00 AM
Sat, Jan 23
4:00 AM
Sat, Jan 23
5:00 AM
Sat, Jan 23
6:00 AM
Sat, Jan 23
7:00 AM
Sat, Jan 23
8:00 AM
Sat, Jan 23
9:00 AM
Sat, Jan 23
10:00 AM
Sat, Jan 23
11:00 AM
Sat, Jan 23
12:00 PM
Sat, Jan 23
1:00 PM
Sat, Jan 23
2:00 PM
Sat, Jan 23
3:00 PM
Sat, Jan 23
4:00 PM
Sat, Jan 23
5:00 PM
Sat, Jan 23
6:00 PM
Sat, Jan 23
7:00 PM
Sat, Jan 23
8:00 PM
Sat, Jan 23
9:00 PM
Sat, Jan 23
10:00 PM
Condition
Clear

Clouds

Clouds

Clouds

Clouds

Clouds

Clouds

Clouds

Clouds

Clouds

Clouds

Clouds

Clouds

Clouds

Clouds

Clouds

Clear

Clouds

Clouds

Clouds

Clouds

Clouds

Clouds

Clouds

Clouds

Clouds

Clouds

Clouds

Clouds

Clouds

Clouds

Clouds

Clouds

Clouds

Clouds

Clouds

Clouds

Clouds

Clouds

Clouds

Clouds

Clouds

Clouds

Clouds

Clouds

Clouds

Clouds

Clouds
Temperature 42°F43°F44°F43°F44°F44°F44°F43°F42°F41°F42°F45°F48°F50°F52°F53°F53°F52°F50°F47°F47°F47°F47°F46°F46°F45°F45°F44°F44°F43°F43°F42°F41°F41°F42°F44°F46°F46°F49°F50°F49°F50°F48°F46°F44°F45°F45°F45°F
Feels Like 38°F38°F38°F38°F37°F37°F37°F35°F33°F31°F32°F35°F38°F41°F43°F43°F44°F44°F42°F40°F39°F39°F39°F39°F38°F37°F37°F36°F36°F35°F34°F34°F33°F32°F32°F35°F37°F38°F41°F42°F41°F41°F40°F40°F38°F38°F38°F37°F
Cloudiness 1%42%75%88%92%95%96%94%91%45%37%29%24%21%18%15%10%20%32%40%87%94%95%95%96%97%100%100%100%100%100%97%97%98%93%86%82%84%92%96%97%98%98%98%100%100%100%100%
Visibility 6 mi6 mi6 mi6 mi6 mi6 mi6 mi6 mi6 mi6 mi6 mi6 mi6 mi6 mi6 mi6 mi6 mi6 mi6 mi6 mi6 mi6 mi6 mi6 mi6 mi6 mi6 mi6 mi6 mi6 mi6 mi6 mi6 mi6 mi6 mi6 mi6 mi6 mi6 mi6 mi6 mi6 mi6 mi6 mi6 mi6 mi6 mi6 mi
Precipitation 0%0%0%0%0%0%0%0%0%0%0%0%0%0%0%0%0%0%0%0%0%0%0%0%0%0%0%0%0%0%0%0%0%0%0%0%0%0%0%0%0%0%0%0%0%0%0%0%
Humidity 100%95%90%89%87%83%78%77%76%74%66%59%53%50%47%45%44%46%51%56%56%55%56%57%57%59%60%61%62%63%65%67%68%69%67%62%58%56%54%57%60%62%66%72%76%75%75%76%
Dew Point 42°F42°F41°F40°F40°F39°F38°F36°F35°F33°F32°F31°F32°F33°F33°F32°F32°F32°F33°F32°F31°F31°F32°F32°F32°F31°F31°F31°F32°F32°F31°F31°F31°F31°F30°F30°F31°F32°F33°F35°F36°F38°F38°F38°F38°F37°F38°F38°F
Pressure 29.97"29.97"29.97"29.97"30"29.97"30"30"30.03"30.06"30.09"30.09"30.12"30.09"30.06"30.06"30.06"30.06"30.06"30.09"30.12"30.12"30.15"30.15"30.15"30.15"30.15"30.15"30.15"30.12"30.12"30.15"30.15"30.15"30.18"30.18"30.15"30.15"30.12"30.06"30.03"30.03"30"30"30.03"30.03"30.03"30.03"
Wind Speed 5 mph5.1 mph5.8 mph5.4 mph7.5 mph8.8 mph9.3 mph9.6 mph9.5 mph10.5 mph11.1 mph11 mph10.5 mph10.6 mph10.4 mph10.3 mph9.2 mph8.9 mph6.9 mph6.3 mph6.5 mph7.2 mph6.7 mph7.6 mph8.2 mph7.6 mph7.6 mph7.4 mph7.3 mph7.8 mph8.2 mph7.6 mph8.4 mph9.3 mph9.9 mph9.6 mph9.4 mph8.6 mph7.3 mph7.6 mph8.9 mph10.1 mph9.6 mph6.6 mph6.3 mph7.2 mph7.8 mph9.7 mph
Wind
Direction
40°
NE
35°
NE
21°
NNE
31°
NNE
20°
NNE
33°
NNE
27°
NNE
39°
NE
44°
NE
40°
NE
53°
NE
63°
ENE
63°
ENE
65°
ENE
70°
ENE
72°
ENE
72°
ENE
73°
ENE
74°
ENE
77°
ENE
78°
ENE
84°
E
88°
E
97°
E
102°
ESE
103°
ESE
101°
E
102°
ESE
100°
E
103°
ESE
104°
ESE
113°
ESE
114°
ESE
116°
ESE
123°
ESE
133°
SE
145°
SE
144°
SE
152°
SSE
160°
SSE
157°
SSE
147°
SSE
146°
SE
158°
SSE
165°
SSE
178°
S
184°
S
171°
S

Daily Forecast

Date High Low Precip. Humidity
Today
Jan 21

Clouds
55 °F
39 °F
0%
65%
Friday
Jan 22

Clouds
53 °F
41 °F
0%
50%
Saturday
Jan 23

Clouds
49 °F
42 °F
0%
56%
Sunday
Jan 24

Rain
64 °F
46 °F
100%
86%
Monday
Jan 25

Rain
61 °F
48 °F
100%
68%
Tuesday
Jan 26

Clouds
52 °F
39 °F
0%
69%
Wednesday
Jan 27

Rain
54 °F
43 °F
25%
66%
Thursday
Jan 28

Clear
58 °F
37 °F
0%
60%
Friday
Jan 29

Clear
60 °F
44 °F
0%
60%
Saturday
Jan 30

Rain
66 °F
48 °F
100%
31%
Sunday
Jan 31

Clear
58 °F
38 °F
0%
48%
Monday
Feb 1

Clouds
59 °F
45 °F
0%
56%
Tuesday
Feb 2

Clouds
59 °F
39 °F
0%
38%
Wednesday
Feb 3

Clear
53 °F
41 °F
0%
44%
Thursday
Feb 4

Clear
53 °F
36 °F
0%
41%
Friday
Feb 5

Clear
58 °F
35 °F
0%
42%


Temperature 8-14 Day Outlook



Precipitation 8-14 Day Outlook




Quick Links
Lake Eufaula News
Lake Eufaula Photos
Lake Eufaula Videos




About Us
Contact Us
Site Map
Search Site
Advertise With Us
   
EufaulaOK.USLakes.info
THE LAKE EUFAULA WEBSITE

Copyright 2021, Lakes Online
Privacy    |    Legal